FW3725 Weather Reports


time (UTC)temp
F
wind
direction
speed
knots
gust
knots
rain 1hr
in
rain 24hr
in
rain mn
in
humidity
%
barometer
mb
20260505233019 61 63 0.0 0.0 0.00 0.00 0.00 73 1016.2
20260505231519 61 63 0.0 0.0 0.00 0.00 0.00 73 1016.3
20260505230017 61 63 0.0 0.0 0.00 0.00 0.00 74 1016.2
20260505224519 61 63 0.0 0.0 0.00 0.00 0.00 74 1016.3
20260505223016 60 63 0.0 0.0 0.00 0.00 0.00 75 1016.4
20260505221519 60 63 0.0 0.0 0.00 0.00 0.00 74 1016.4
20260505220024 60 69 0.0 0.0 0.00 0.00 0.00 74 1016.5
20260505214522 60 68 0.0 0.0 0.00 0.00 0.00 74 1016.6
20260505213014 60 40 0.0 0.0 0.00 0.00 0.00 74 1016.8
20260505211514 60 69 0.0 0.0 0.00 0.00 0.00 74 1016.7
20260505210013 60 264 0.0 0.0 0.00 0.00 0.00 74 1016.6
20260505204513 60 261 0.0 0.0 0.00 0.00 0.00 74 1016.6
20260505203011 61 19 0.0 0.0 0.00 0.00 0.00 76 1016.6
20260505201512 60 274 0.0 0.0 0.00 0.00 0.00 77 1016.8
20260505200008 59 317 0.0 0.0 0.00 0.00 0.00 78 1017.0
20260505194520 59 281 0.0 0.0 0.00 0.00 0.00 79 1017.0
20260505193021 59 282 0.0 0.0 0.00 0.00 0.00 77 1017.2
20260505191505 59 312 0.0 0.0 0.00 0.00 0.00 78 1017.0
20260505190001 58 35 0.0 0.0 0.00 0.00 0.00 79 1016.9
20260505184606 58 296 0.0 0.0 0.00 0.00 0.00 79 1017.0
20260505183058 58 296 0.0 0.0 0.00 0.00 0.00 79 1017.0
20260505181559 57 296 0.0 0.0 0.00 0.00 0.00 79 1017.0
20260505174610 57 335 0.0 0.0 0.00 0.00 0.00 80 1016.8
20260505173052 57 270 0.0 0.0 0.00 0.00 0.00 81 1016.7
20260505171551 56 340 0.0 0.0 0.00 0.00 0.00 82 1016.4
20260505170122 56 340 0.0 0.0 0.00 0.00 0.00 83 1016.4
20260505164549 55 340 0.0 0.0 0.00 0.00 0.00 84 1016.4
20260505163046 55 340 0.0 0.0 0.00 0.00 0.00 85 1016.3
20260505161553 54 340 0.0 0.0 0.00 0.00 0.00 85 1016.3
20260505153052 53 290 0.0 0.0 0.00 0.00 0.00 86 1016.1
20260505151545 53 290 0.0 0.0 0.00 0.00 0.00 85 1016.0
20260505124522 52 275 0.0 0.0 0.00 0.00 0.00 82 1015.4
20260505123023 52 275 0.0 0.0 0.00 0.00 0.00 81 1015.5
20260505121519 52 275 0.0 0.0 0.00 0.00 0.00 81 1015.5
20260505120026 52 275 0.0 0.0 0.00 0.00 0.00 80 1015.4
20260505114518 52 275 0.0 0.0 0.00 0.00 0.00 79 1015.6
20260505113025 52 275 0.0 0.0 0.00 0.00 0.00 79 1015.5
20260505111520 52 275 0.0 0.0 0.00 0.00 0.00 78 1015.6
20260505101514 53 275 0.0 0.0 0.00 0.00 0.00 77 1015.6
20260505100010 53 275 0.0 0.0 0.00 0.00 0.00 77 1015.7
20260505094510 53 275 0.0 0.0 0.00 0.00 0.00 77 1015.7
20260505093010 53 275 0.0 0.0 0.00 0.00 0.00 77 1015.8
20260505091506 54 275 0.0 0.0 0.00 0.00 0.00 77 1015.6
20260505090005 54 273 0.0 0.0 0.00 0.00 0.00 77 1016.1
20260505084505 54 270 0.0 0.0 0.00 0.00 0.00 77 1016.2
20260505083008 54 290 0.0 0.0 0.00 0.00 0.00 77 1016.4
20260505081502 54 290 0.0 0.0 0.00 0.00 0.00 77 1016.3
20260505080100 54 278 0.0 0.0 0.00 0.00 0.00 79 1016.5
20260505074559 54 276 0.0 0.0 0.00 0.00 0.00 80 1016.5
20260505073105 54 302 0.0 0.0 0.00 0.00 0.00 81 1016.5
20260505071554 54 290 0.0 0.0 0.00 0.00 0.00 80 1016.3
20260505070053 55 290 0.0 0.0 0.00 0.00 0.00 80 1016.2
20260505064601 55 290 0.0 0.0 0.00 0.00 0.00 80 1016.1
20260505063054 55 290 0.0 0.0 0.00 0.00 0.00 80 1016.1
20260505061552 55 290 0.0 0.0 0.00 0.00 0.00 79 1015.9
20260505060051 56 290 0.0 0.0 0.00 0.00 0.00 79 1015.8
20260505054559 56 273 0.0 0.0 0.00 0.00 0.00 77 1016.1
20260505053107 56 289 0.0 0.0 0.00 0.00 0.00 77 1016.2
20260505051549 56 279 0.0 0.0 0.00 0.00 0.00 76 1016.3
20260505041608 57 309 0.0 0.0 0.00 0.00 0.00 73 1016.0
20260505040046 57 92 0.0 0.0 0.00 0.00 0.00 72 1015.8
20260505034547 58 271 0.0 0.0 0.00 0.00 0.00 70 1015.7
20260505033044 58 261 0.0 0.0 0.00 0.00 0.00 68 1015.4
20260505031544 58 260 0.0 0.0 0.00 0.00 0.00 67 1015.3
20260505030044 59 312 0.0 0.0 0.00 0.00 0.00 69 1015.3
20260505024643 59 277 0.0 0.0 0.00 0.00 0.00 69 1015.2
20260505023047 59 268 0.0 0.0 0.00 0.00 0.00 68 1015.3
20260505021545 59 277 0.0 0.0 0.00 0.00 0.00 68 1015.3
20260505020043 60 272 0.0 0.0 0.00 0.00 0.00 67 1015.1
20260505014544 60 108 0.0 0.0 0.00 0.00 0.00 66 1015.1
20260505013039 61 95 0.0 0.0 0.00 0.00 0.00 66 1015.2
20260505011539 61 32 0.0 0.0 0.00 0.00 0.00 65 1015.3
20260505010043 62 289 0.0 0.0 0.00 0.00 0.00 65 1015.4
20260505004539 62 283 0.0 0.0 0.00 0.00 0.00 67 1015.4
20260505003038 61 21 0.0 0.0 0.00 0.00 0.00 68 1015.4
20260505001547 61 273 0.0 0.0 0.00 0.00 0.00 69 1015.5
20260505000041 61 285 0.0 0.0 0.00 0.00 0.00 69 1015.4
20260504234536 61 268 0.0 0.0 0.00 0.00 0.00 68 1015.3